| time (UTC) | temp F | wind direction | speed MPH | gust MPH | rain 1hr in | rain 24hr in | rain mn in | humidity % | barometer mb |
| 20260904024100 | 80 | 98 | 3.0 | 8.0 | 0.00 | 0.00 | 0.00 | 78 | 1016.2 |
| 20260904024001 | 80 | 76 | 2.0 | 8.0 | 0.00 | 0.00 | 0.00 | 78 | 1016.1 |
| 20260904023556 | 80 | 124 | 1.0 | 6.0 | 0.00 | 0.00 | 0.00 | 78 | 1016.1 |
| 20260904023337 | 81 | 68 | 2.0 | 6.0 | 0.00 | 0.00 | 0.00 | 78 | 1017.1 |
| 20260904023025 | 80 | 126 | 2.0 | 6.0 | 0.00 | 0.00 | 0.00 | 78 | 1016.1 |
| 20260904022519 | 81 | 109 | 1.0 | 4.0 | 0.00 | 0.00 | 0.00 | 79 | 1016.1 |
| 20260904022015 | 81 | 126 | 0.0 | 3.0 | 0.00 | 0.00 | 0.00 | 79 | 1016.2 |
| 20260904021825 | 81 | 60 | 1.0 | 3.0 | 0.00 | 0.00 | 0.00 | 79 | 1017.1 |
| 20260904021518 | 81 | 60 | 0.0 | 3.0 | 0.00 | 0.00 | 0.00 | 79 | 1016.2 |
| 20260904021009 | 81 | 50 | 1.0 | 3.0 | 0.00 | 0.00 | 0.00 | 78 | 1016.1 |
| 20260904020503 | 81 | 88 | 0.0 | 4.0 | 0.00 | 0.00 | 0.00 | 78 | 1016.1 |
| 20260904020322 | 81 | 43 | 0.0 | 4.0 | 0.00 | 0.00 | 0.00 | 78 | 1017.1 |
| 20260904020057 | 81 | 38 | 1.0 | 4.0 | 0.00 | 0.00 | 0.00 | 78 | 1016.1 |
| 20260904015554 | 81 | 57 | 1.0 | 3.0 | 0.00 | 0.00 | 0.00 | 78 | 1016.0 |
| 20260904015051 | 81 | 74 | 1.0 | 5.0 | 0.00 | 0.00 | 0.00 | 78 | 1016.0 |
| 20260904014814 | 82 | 32 | 1.0 | 5.0 | 0.00 | 0.00 | 0.00 | 78 | 1016.9 |
| 20260904014552 | 81 | 115 | 2.0 | 5.0 | 0.00 | 0.00 | 0.00 | 78 | 1016.0 |
| 20260904014043 | 82 | 105 | 3.0 | 9.0 | 0.00 | 0.00 | 0.00 | 77 | 1016.0 |
| 20260904013535 | 82 | 74 | 4.0 | 9.0 | 0.00 | 0.00 | 0.00 | 77 | 1016.0 |
| 20260904013328 | 82 | 112 | 4.0 | 9.0 | 0.00 | 0.00 | 0.00 | 77 | 1016.9 |
| 20260904013031 | 82 | 86 | 3.0 | 7.0 | 0.00 | 0.00 | 0.00 | 77 | 1015.8 |
| 20260904012529 | 82 | 105 | 2.0 | 7.0 | 0.00 | 0.00 | 0.00 | 77 | 1015.8 |
| 20260904012024 | 82 | 89 | 2.0 | 7.0 | 0.00 | 0.00 | 0.00 | 77 | 1015.8 |
| 20260904011841 | 83 | 117 | 3.0 | 7.0 | 0.00 | 0.00 | 0.00 | 77 | 1016.9 |
| 20260904011557 | 82 | 66 | 2.0 | 7.0 | 0.00 | 0.00 | 0.00 | 76 | 1015.9 |
| 20260904011054 | 82 | 127 | 2.0 | 6.0 | 0.00 | 0.00 | 0.00 | 76 | 1015.9 |
| 20260904010551 | 83 | 65 | 2.0 | 6.0 | 0.00 | 0.00 | 0.00 | 75 | 1015.8 |
| 20260904010314 | 83 | 107 | 3.0 | 6.0 | 0.00 | 0.00 | 0.00 | 75 | 1016.8 |
| 20260904010049 | 83 | 65 | 2.0 | 9.0 | 0.00 | 0.00 | 0.00 | 75 | 1015.8 |
| 20260904005544 | 83 | 175 | 3.0 | 9.0 | 0.00 | 0.00 | 0.00 | 75 | 1015.8 |
| 20260904005042 | 83 | 117 | 1.0 | 5.0 | 0.00 | 0.00 | 0.00 | 75 | 1015.7 |
| 20260904004825 | 84 | 137 | 3.0 | 5.0 | 0.00 | 0.00 | 0.00 | 75 | 1016.7 |
| 20260904004535 | 84 | 128 | 1.0 | 6.0 | 0.00 | 0.00 | 0.00 | 75 | 1015.6 |
| 20260904004035 | 84 | 142 | 2.0 | 6.0 | 0.00 | 0.00 | 0.00 | 75 | 1015.7 |
| 20260904003528 | 84 | 170 | 2.0 | 5.0 | 0.00 | 0.00 | 0.00 | 73 | 1015.7 |
| 20260904003321 | 85 | 165 | 2.0 | 6.0 | 0.00 | 0.00 | 0.00 | 73 | 1016.7 |
| 20260904003022 | 85 | 151 | 2.0 | 6.0 | 0.00 | 0.00 | 0.00 | 72 | 1015.7 |
| 20260904002519 | 85 | 155 | 2.0 | 7.0 | 0.00 | 0.00 | 0.00 | 71 | 1015.8 |
| 20260904002013 | 85 | 130 | 2.0 | 7.0 | 0.00 | 0.00 | 0.00 | 71 | 1015.7 |
| 20260904001851 | 85 | 161 | 2.0 | 7.0 | 0.00 | 0.00 | 0.00 | 71 | 1016.7 |
| 20260904001549 | 85 | 116 | 3.0 | 7.0 | 0.00 | 0.00 | 0.00 | 70 | 1015.7 |
| 20260904001042 | 85 | 162 | 1.0 | 7.0 | 0.00 | 0.00 | 0.00 | 70 | 1015.6 |
| 20260904000540 | 85 | 163 | 3.0 | 7.0 | 0.00 | 0.00 | 0.00 | 70 | 1015.7 |
| 20260904000351 | 86 | 147 | 4.0 | 7.0 | 0.00 | 0.00 | 0.00 | 69 | 1016.7 |
| 20260904000015 | 86 | 142 | 0.0 | 5.0 | 0.00 | 0.00 | 0.00 | 69 | 1015.6 |
| 20260903235516 | 86 | 163 | 3.0 | 6.0 | 0.00 | 0.00 | 0.00 | 69 | 1015.5 |
| 20260903235008 | 87 | 167 | 3.0 | 8.0 | 0.00 | 0.00 | 0.00 | 68 | 1015.4 |
| 20260903234825 | 87 | 134 | 3.0 | 8.0 | 0.00 | 0.00 | 0.00 | 67 | 1016.4 |
| 20260903234504 | 87 | 171 | 3.0 | 8.0 | 0.00 | 0.00 | 0.00 | 67 | 1015.4 |
| 20260903234101 | 88 | 168 | 3.0 | 7.0 | 0.00 | 0.00 | 0.00 | 65 | 1015.3 |
| 20260903233555 | 89 | 142 | 3.0 | 7.0 | 0.00 | 0.00 | 0.00 | 64 | 1015.2 |
| 20260903233320 | 89 | 115 | 2.0 | 9.0 | 0.00 | 0.00 | 0.00 | 63 | 1016.3 |
| 20260903233050 | 89 | 102 | 1.0 | 9.0 | 0.00 | 0.00 | 0.00 | 62 | 1015.1 |
| 20260903232548 | 89 | 137 | 4.0 | 9.0 | 0.00 | 0.00 | 0.00 | 61 | 1015.3 |
| 20260903232048 | 89 | 173 | 2.0 | 6.0 | 0.00 | 0.00 | 0.00 | 59 | 1015.2 |
| 20260903231830 | 90 | 126 | 2.0 | 6.0 | 0.00 | 0.00 | 0.00 | 59 | 1016.2 |
| 20260903231545 | 90 | 111 | 1.0 | 3.0 | 0.00 | 0.00 | 0.00 | 58 | 1015.2 |
| 20260903231038 | 90 | 36 | 0.0 | 3.0 | 0.00 | 0.00 | 0.00 | 58 | 1015.2 |
| 20260903230534 | 90 | 173 | 1.0 | 2.0 | 0.00 | 0.00 | 0.00 | 58 | 1015.1 |
| 20260903230350 | 91 | 111 | 1.0 | 2.0 | 0.00 | 0.00 | 0.00 | 58 | 1016.1 |
| 20260903230008 | 90 | 76 | 0.0 | 4.0 | 0.00 | 0.00 | 0.00 | 57 | 1015.1 |
| 20260903225505 | 90 | 103 | 2.0 | 4.0 | 0.00 | 0.00 | 0.00 | 56 | 1015.1 |
| 20260903225102 | 90 | 111 | 1.0 | 4.0 | 0.00 | 0.00 | 0.00 | 57 | 1015.1 |
| 20260903224830 | 91 | 63 | 1.0 | 4.0 | 0.00 | 0.00 | 0.00 | 56 | 1016.0 |
| 20260903224556 | 91 | 59 | 1.0 | 6.0 | 0.00 | 0.00 | 0.00 | 57 | 1015.0 |
| 20260903224052 | 90 | 61 | 1.0 | 8.0 | 0.00 | 0.00 | 0.00 | 57 | 1015.0 |
| 20260903223548 | 90 | 67 | 2.0 | 8.0 | 0.00 | 0.00 | 0.00 | 57 | 1014.9 |
| 20260903223332 | 91 | 111 | 2.0 | 7.0 | 0.00 | 0.00 | 0.00 | 57 | 1015.9 |
| 20260903223038 | 90 | 55 | 2.0 | 8.0 | 0.00 | 0.00 | 0.00 | 57 | 1014.9 |
| 20260903222536 | 90 | 58 | 2.0 | 8.0 | 0.00 | 0.00 | 0.00 | 56 | 1014.9 |
| 20260903222037 | 90 | 78 | 2.0 | 8.0 | 0.00 | 0.00 | 0.00 | 56 | 1014.8 |
| 20260903221830 | 91 | 17 | 2.0 | 8.0 | 0.00 | 0.00 | 0.00 | 56 | 1015.9 |
| 20260903221531 | 91 | 84 | 1.0 | 8.0 | 0.00 | 0.00 | 0.00 | 56 | 1014.9 |
| 20260903221026 | 91 | 46 | 2.0 | 6.0 | 0.00 | 0.00 | 0.00 | 54 | 1014.8 |
| 20260903220524 | 91 | 32 | 1.0 | 6.0 | 0.00 | 0.00 | 0.00 | 56 | 1014.8 |
| 20260903220333 | 92 | 38 | 2.0 | 6.0 | 0.00 | 0.00 | 0.00 | 54 | 1015.9 |
| 20260903220026 | 92 | 44 | 1.0 | 5.0 | 0.00 | 0.00 | 0.00 | 54 | 1014.8 |
| 20260903215523 | 92 | 32 | 1.0 | 6.0 | 0.00 | 0.00 | 0.00 | 54 | 1015.0 |
| 20260903215016 | 92 | 78 | 2.0 | 6.0 | 0.00 | 0.00 | 0.00 | 53 | 1014.9 |
| 20260903214813 | 92 | 57 | 2.0 | 6.0 | 0.00 | 0.00 | 0.00 | 55 | 1015.9 |
| 20260903214519 | 91 | 148 | 1.0 | 7.0 | 0.00 | 0.00 | 0.00 | 56 | 1015.0 |
| 20260903214010 | 91 | 86 | 2.0 | 7.0 | 0.00 | 0.00 | 0.00 | 55 | 1015.0 |
| 20260903213510 | 91 | 360 | 1.0 | 7.0 | 0.00 | 0.00 | 0.00 | 55 | 1014.9 |
| 20260903213314 | 92 | 46 | 2.0 | 6.0 | 0.00 | 0.00 | 0.00 | 54 | 1015.9 |
| 20260903213006 | 92 | 60 | 3.0 | 8.0 | 0.00 | 0.00 | 0.00 | 54 | 1014.9 |
| 20260903212558 | 92 | 38 | 1.0 | 8.0 | 0.00 | 0.00 | 0.00 | 54 | 1014.9 |
| 20260903212057 | 92 | 53 | 1.0 | 7.0 | 0.00 | 0.00 | 0.00 | 55 | 1015.0 |
| 20260903211816 | 92 | 5 | 3.0 | 7.0 | 0.00 | 0.00 | 0.00 | 53 | 1016.0 |
| 20260903211556 | 92 | 181 | 2.0 | 8.0 | 0.00 | 0.00 | 0.00 | 53 | 1015.0 |
| 20260903211046 | 93 | 109 | 3.0 | 9.0 | 0.00 | 0.00 | 0.00 | 52 | 1015.1 |
| 20260903210542 | 93 | 81 | 3.0 | 9.0 | 0.00 | 0.00 | 0.00 | 52 | 1015.1 |
| 20260903210318 | 93 | 71 | 3.0 | 8.0 | 0.00 | 0.00 | 0.00 | 52 | 1016.1 |
| 20260903210044 | 93 | 145 | 2.0 | 8.0 | 0.00 | 0.00 | 0.00 | 52 | 1015.0 |
| 20260903205534 | 92 | 316 | 0.0 | 8.0 | 0.00 | 0.00 | 0.00 | 54 | 1015.0 |
| 20260903205028 | 92 | 28 | 3.0 | 8.0 | 0.00 | 0.00 | 0.00 | 54 | 1015.1 |
| 20260903204839 | 92 | 55 | 4.0 | 8.0 | 0.00 | 0.00 | 0.00 | 53 | 1016.1 |
| 20260903204603 | 92 | 26 | 2.0 | 7.0 | 0.00 | 0.00 | 0.00 | 52 | 1015.0 |
| 20260903204502 | 92 | 19 | 2.0 | 7.0 | 0.00 | 0.00 | 0.00 | 52 | 1015.0 |
| 20260903204057 | 92 | 44 | 3.0 | 7.0 | 0.00 | 0.00 | 0.00 | 51 | 1015.1 |
| 20260903203554 | 92 | 348 | 1.0 | 6.0 | 0.00 | 0.00 | 0.00 | 54 | 1015.3 |
| 20260903203321 | 93 | 16 | 3.0 | 6.0 | 0.00 | 0.00 | 0.00 | 53 | 1016.3 |
| 20260903203050 | 93 | 59 | 2.0 | 6.0 | 0.00 | 0.00 | 0.00 | 53 | 1015.2 |
| 20260903202549 | 93 | 37 | 2.0 | 7.0 | 0.00 | 0.00 | 0.00 | 52 | 1015.2 |
| 20260903202046 | 93 | 125 | 1.0 | 7.0 | 0.00 | 0.00 | 0.00 | 51 | 1015.3 |
| 20260903201821 | 93 | 310 | 4.0 | 7.0 | 0.00 | 0.00 | 0.00 | 51 | 1016.3 |
| 20260903201547 | 92 | 110 | 2.0 | 10.0 | 0.00 | 0.00 | 0.00 | 52 | 1015.3 |
| 20260903201043 | 92 | 70 | 2.0 | 10.0 | 0.00 | 0.00 | 0.00 | 53 | 1015.3 |
| 20260903200540 | 92 | 147 | 3.0 | 7.0 | 0.00 | 0.00 | 0.00 | 53 | 1015.3 |
| 20260903200322 | 93 | 101 | 3.0 | 8.0 | 0.00 | 0.00 | 0.00 | 52 | 1016.3 |
| 20260903200030 | 92 | 84 | 2.0 | 9.0 | 0.00 | 0.00 | 0.00 | 52 | 1015.4 |
| 20260903195531 | 91 | 161 | 2.0 | 9.0 | 0.00 | 0.00 | 0.00 | 55 | 1015.6 |
| 20260903195029 | 91 | 36 | 2.0 | 10.0 | 0.00 | 0.00 | 0.00 | 54 | 1015.8 |
| 20260903194822 | 92 | 84 | 2.0 | 10.0 | 0.00 | 0.00 | 0.00 | 53 | 1016.8 |
| 20260903194526 | 92 | 99 | 2.0 | 9.0 | 0.00 | 0.00 | 0.00 | 52 | 1016.0 |
| 20260903194023 | 92 | 75 | 3.0 | 10.0 | 0.00 | 0.00 | 0.00 | 53 | 1015.9 |
| 20260903193520 | 92 | 67 | 3.0 | 11.0 | 0.00 | 0.00 | 0.00 | 51 | 1016.0 |
| 20260903193321 | 93 | 155 | 5.0 | 11.0 | 0.00 | 0.00 | 0.00 | 52 | 1017.1 |
| 20260903193016 | 92 | 116 | 6.0 | 11.0 | 0.00 | 0.00 | 0.00 | 53 | 1016.2 |
| 20260903192518 | 92 | 118 | 4.0 | 10.0 | 0.00 | 0.00 | 0.00 | 51 | 1016.2 |
| 20260903192011 | 92 | 83 | 2.0 | 9.0 | 0.00 | 0.00 | 0.00 | 53 | 1016.2 |
| 20260903191823 | 92 | 60 | 3.0 | 9.0 | 0.00 | 0.00 | 0.00 | 54 | 1017.2 |
| 20260903191508 | 91 | 123 | 3.0 | 8.0 | 0.00 | 0.00 | 0.00 | 52 | 1016.2 |
| 20260903191006 | 91 | 100 | 4.0 | 8.0 | 0.00 | 0.00 | 0.00 | 53 | 1016.4 |
| 20260903190511 | 90 | 93 | 2.0 | 12.0 | 0.00 | 0.00 | 0.00 | 53 | 1016.4 |
| 20260903190325 | 91 | 134 | 3.0 | 12.0 | 0.00 | 0.00 | 0.00 | 55 | 1017.4 |
| 20260903190058 | 91 | 123 | 5.0 | 12.0 | 0.00 | 0.00 | 0.00 | 52 | 1016.4 |
| 20260903185556 | 91 | 115 | 2.0 | 10.0 | 0.00 | 0.00 | 0.00 | 55 | 1016.3 |
| 20260903185054 | 91 | 22 | 3.0 | 10.0 | 0.00 | 0.00 | 0.00 | 54 | 1016.4 |
| 20260903184816 | 91 | 91 | 4.0 | 10.0 | 0.00 | 0.00 | 0.00 | 55 | 1017.4 |
| 20260903184550 | 91 | 103 | 2.0 | 7.0 | 0.00 | 0.00 | 0.00 | 55 | 1016.5 |
| 20260903184050 | 91 | 99 | 2.0 | 8.0 | 0.00 | 0.00 | 0.00 | 56 | 1016.5 |
| 20260903183541 | 91 | 57 | 3.0 | 8.0 | 0.00 | 0.00 | 0.00 | 54 | 1016.6 |
| 20260903183337 | 91 | 158 | 4.0 | 9.0 | 0.00 | 0.00 | 0.00 | 56 | 1017.6 |
| 20260903183016 | 91 | 78 | 3.0 | 9.0 | 0.00 | 0.00 | 0.00 | 57 | 1016.7 |
| 20260903182514 | 90 | 137 | 4.0 | 8.0 | 0.00 | 0.00 | 0.00 | 56 | 1016.8 |
| 20260903182013 | 90 | 116 | 4.0 | 12.0 | 0.00 | 0.00 | 0.00 | 57 | 1016.9 |
| 20260903181815 | 91 | 96 | 4.0 | 12.0 | 0.00 | 0.00 | 0.00 | 54 | 1017.9 |
| 20260903181508 | 90 | 138 | 3.0 | 12.0 | 0.00 | 0.00 | 0.00 | 57 | 1016.9 |
| 20260903181009 | 91 | 63 | 3.0 | 12.0 | 0.00 | 0.00 | 0.00 | 55 | 1017.0 |
| 20260903180517 | 91 | 83 | 4.0 | 12.0 | 0.00 | 0.00 | 0.00 | 54 | 1017.0 |
| 20260903180337 | 92 | 93 | 6.0 | 12.0 | 0.00 | 0.00 | 0.00 | 53 | 1018.1 |
| 20260903180050 | 92 | 146 | 6.0 | 12.0 | 0.00 | 0.00 | 0.00 | 54 | 1017.1 |
| 20260903175549 | 91 | 109 | 4.0 | 14.0 | 0.00 | 0.00 | 0.00 | 54 | 1017.1 |
| 20260903175052 | 91 | 119 | 6.0 | 14.0 | 0.00 | 0.00 | 0.00 | 54 | 1017.1 |
| 20260903174818 | 91 | 121 | 3.0 | 11.0 | 0.00 | 0.00 | 0.00 | 57 | 1018.1 |
| 20260903174550 | 90 | 82 | 4.0 | 11.0 | 0.00 | 0.00 | 0.00 | 58 | 1017.2 |
| 20260903174050 | 90 | 155 | 5.0 | 12.0 | 0.00 | 0.00 | 0.00 | 57 | 1017.1 |
| 20260903173545 | 89 | 74 | 5.0 | 12.0 | 0.00 | 0.00 | 0.00 | 59 | 1017.3 |
| 20260903173321 | 90 | 118 | 2.0 | 12.0 | 0.00 | 0.00 | 0.00 | 58 | 1018.2 |
| 20260903173043 | 89 | 360 | 3.0 | 12.0 | 0.00 | 0.00 | 0.00 | 59 | 1017.2 |
| 20260903172541 | 89 | 121 | 7.0 | 12.0 | 0.00 | 0.00 | 0.00 | 61 | 1017.3 |
| 20260903172038 | 89 | 124 | 3.0 | 10.0 | 0.00 | 0.00 | 0.00 | 59 | 1017.4 |
| 20260903171819 | 89 | 161 | 4.0 | 10.0 | 0.00 | 0.00 | 0.00 | 60 | 1018.3 |
| 20260903171536 | 88 | 80 | 5.0 | 10.0 | 0.00 | 0.00 | 0.00 | 60 | 1017.4 |
| 20260903171124 | 88 | 141 | 4.0 | 10.0 | 0.00 | 0.00 | 0.00 | 60 | 1017.4 |
| 20260903170524 | 88 | 90 | 3.0 | 9.0 | 0.00 | 0.00 | 0.00 | 65 | 1017.4 |
| 20260903170352 | 88 | 113 | 4.0 | 9.0 | 0.00 | 0.00 | 0.00 | 63 | 1018.4 |
| 20260903170105 | 88 | 53 | 3.0 | 9.0 | 0.00 | 0.00 | 0.00 | 62 | 1017.5 |
| 20260903165555 | 88 | 61 | 4.0 | 6.0 | 0.00 | 0.00 | 0.00 | 62 | 1017.6 |
| 20260903165056 | 88 | 141 | 2.0 | 9.0 | 0.00 | 0.00 | 0.00 | 64 | 1017.6 |
| 20260903164829 | 89 | 80 | 4.0 | 9.0 | 0.00 | 0.00 | 0.00 | 64 | 1018.7 |
| 20260903164550 | 88 | 195 | 3.0 | 9.0 | 0.00 | 0.00 | 0.00 | 64 | 1017.6 |
| 20260903164047 | 88 | 21 | 2.0 | 8.0 | 0.00 | 0.00 | 0.00 | 64 | 1017.8 |
| 20260903163538 | 87 | 103 | 3.0 | 9.0 | 0.00 | 0.00 | 0.00 | 67 | 1017.9 |
| 20260903162058 | 88 | 59 | 2.0 | 9.0 | 0.00 | 0.00 | 0.00 | 63 | 1018.0 |
| 20260903161827 | 89 | 38 | 6.0 | 9.0 | 0.00 | 0.00 | 0.00 | 64 | 1018.9 |
| 20260903161556 | 88 | 133 | 2.0 | 8.0 | 0.00 | 0.00 | 0.00 | 63 | 1018.0 |
| 20260903161055 | 87 | 57 | 3.0 | 9.0 | 0.00 | 0.00 | 0.00 | 64 | 1018.1 |
| 20260903160555 | 87 | 147 | 3.0 | 11.0 | 0.00 | 0.00 | 0.00 | 66 | 1018.2 |
| 20260903160337 | 87 | 125 | 5.0 | 11.0 | 0.00 | 0.00 | 0.00 | 65 | 1019.2 |
| 20260903160037 | 87 | 50 | 4.0 | 10.0 | 0.00 | 0.00 | 0.00 | 64 | 1018.2 |
| 20260903155539 | 87 | 36 | 3.0 | 10.0 | 0.00 | 0.00 | 0.00 | 65 | 1018.3 |
| 20260903155041 | 87 | 31 | 3.0 | 9.0 | 0.00 | 0.00 | 0.00 | 67 | 1018.2 |
| 20260903154824 | 87 | 101 | 3.0 | 9.0 | 0.00 | 0.00 | 0.00 | 65 | 1019.3 |
| 20260903154547 | 87 | 123 | 4.0 | 9.0 | 0.00 | 0.00 | 0.00 | 67 | 1018.3 |
| 20260903154050 | 86 | 50 | 2.0 | 8.0 | 0.00 | 0.00 | 0.00 | 67 | 1018.4 |
| 20260903153555 | 86 | 69 | 4.0 | 10.0 | 0.00 | 0.00 | 0.00 | 68 | 1018.5 |
| 20260903153314 | 87 | 97 | 3.0 | 10.0 | 0.00 | 0.00 | 0.00 | 68 | 1019.5 |
| 20260903153107 | 87 | 64 | 4.0 | 10.0 | 0.00 | 0.00 | 0.00 | 66 | 1018.5 |
| 20260903152555 | 86 | 128 | 4.0 | 9.0 | 0.00 | 0.00 | 0.00 | 68 | 1018.5 |
| 20260903152059 | 86 | 106 | 3.0 | 8.0 | 0.00 | 0.00 | 0.00 | 70 | 1018.4 |
| 20260903151817 | 86 | 114 | 4.0 | 10.0 | 0.00 | 0.00 | 0.00 | 70 | 1019.4 |
| 20260903151540 | 85 | 118 | 3.0 | 10.0 | 0.00 | 0.00 | 0.00 | 70 | 1018.5 |
| 20260903151043 | 85 | 55 | 4.0 | 10.0 | 0.00 | 0.00 | 0.00 | 70 | 1018.4 |
| 20260903150545 | 85 | 46 | 2.0 | 8.0 | 0.00 | 0.00 | 0.00 | 72 | 1018.5 |
| 20260903150320 | 86 | 97 | 3.0 | 8.0 | 0.00 | 0.00 | 0.00 | 72 | 1019.4 |
| 20260903150101 | 86 | 105 | 2.0 | 8.0 | 0.00 | 0.00 | 0.00 | 72 | 1018.4 |
| 20260903145549 | 85 | 113 | 1.0 | 6.0 | 0.00 | 0.00 | 0.00 | 73 | 1018.5 |
| 20260903145055 | 85 | 61 | 1.0 | 7.0 | 0.00 | 0.00 | 0.00 | 73 | 1018.5 |
| 20260903144841 | 85 | 100 | 2.0 | 7.0 | 0.00 | 0.00 | 0.00 | 74 | 1019.4 |
| 20260903144541 | 84 | 30 | 2.0 | 7.0 | 0.00 | 0.00 | 0.00 | 74 | 1018.5 |
| 20260903144042 | 84 | 60 | 2.0 | 9.0 | 0.00 | 0.00 | 0.00 | 74 | 1018.4 |
| 20260903143544 | 83 | 117 | 2.0 | 9.0 | 0.00 | 0.00 | 0.00 | 76 | 1018.3 |
| 20260903143326 | 84 | 115 | 4.0 | 9.0 | 0.00 | 0.00 | 0.00 | 76 | 1019.3 |
| 20260903143047 | 83 | 93 | 2.0 | 6.0 | 0.00 | 0.00 | 0.00 | 77 | 1018.4 |
| 20260903142532 | 83 | 64 | 3.0 | 6.0 | 0.00 | 0.00 | 0.00 | 76 | 1018.4 |
| 20260903142028 | 84 | 58 | 3.0 | 8.0 | 0.00 | 0.00 | 0.00 | 75 | 1018.4 |
| 20260903141832 | 85 | 15 | 3.0 | 8.0 | 0.00 | 0.00 | 0.00 | 75 | 1019.4 |
| 20260903141537 | 84 | 88 | 2.0 | 6.0 | 0.00 | 0.00 | 0.00 | 76 | 1018.4 |
| 20260903141023 | 83 | 57 | 1.0 | 4.0 | 0.00 | 0.00 | 0.00 | 78 | 1018.5 |
| 20260903140518 | 82 | 21 | 0.0 | 6.0 | 0.00 | 0.00 | 0.00 | 80 | 1018.5 |
| 20260903140321 | 82 | 144 | 0.0 | 6.0 | 0.00 | 0.00 | 0.00 | 80 | 1019.4 |
| 20260903140016 | 82 | 37 | 2.0 | 8.0 | 0.00 | 0.00 | 0.00 | 80 | 1018.5 |
| 20260903135511 | 82 | 21 | 2.0 | 8.0 | 0.00 | 0.00 | 0.00 | 81 | 1018.5 |
| 20260903135011 | 81 | 5 | 1.0 | 5.0 | 0.00 | 0.00 | 0.00 | 81 | 1018.4 |
| 20260903134825 | 82 | 346 | 2.0 | 5.0 | 0.00 | 0.00 | 0.00 | 81 | 1019.4 |
| 20260903134506 | 81 | 28 | 2.0 | 5.0 | 0.00 | 0.00 | 0.00 | 82 | 1018.4 |
| 20260903134059 | 80 | 16 | 1.0 | 6.0 | 0.00 | 0.00 | 0.00 | 82 | 1018.3 |
| 20260903134001 | 80 | 355 | 1.0 | 6.0 | 0.00 | 0.00 | 0.00 | 83 | 1018.4 |
| 20260903133551 | 80 | 82 | 2.0 | 7.0 | 0.00 | 0.00 | 0.00 | 83 | 1018.5 |
| 20260903133352 | 81 | 61 | 3.0 | 7.0 | 0.00 | 0.00 | 0.00 | 83 | 1019.5 |
| 20260903133024 | 80 | 121 | 4.0 | 7.0 | 0.00 | 0.00 | 0.00 | 83 | 1018.5 |
| 20260903132522 | 80 | 77 | 2.0 | 6.0 | 0.00 | 0.00 | 0.00 | 84 | 1018.5 |
| 20260903132015 | 80 | 24 | 2.0 | 5.0 | 0.00 | 0.00 | 0.00 | 85 | 1018.5 |
| 20260903131815 | 80 | 21 | 2.0 | 5.0 | 0.00 | 0.00 | 0.00 | 85 | 1019.3 |
| 20260903131513 | 79 | 49 | 1.0 | 5.0 | 0.00 | 0.00 | 0.00 | 85 | 1018.5 |
| 20260903131010 | 79 | 46 | 2.0 | 5.0 | 0.00 | 0.00 | 0.00 | 86 | 1018.4 |
| 20260903130512 | 78 | 40 | 1.0 | 6.0 | 0.00 | 0.00 | 0.00 | 87 | 1018.6 |
| 20260903130323 | 79 | 5 | 2.0 | 6.0 | 0.00 | 0.00 | 0.00 | 86 | 1019.5 |
| 20260903130003 | 78 | 42 | 3.0 | 6.0 | 0.00 | 0.00 | 0.00 | 86 | 1018.5 |
| 20260903125559 | 78 | 65 | 1.0 | 6.0 | 0.00 | 0.00 | 0.00 | 87 | 1018.5 |
| 20260903125501 | 78 | 71 | 0.0 | 5.0 | 0.00 | 0.00 | 0.00 | 88 | 1018.5 |
| 20260903125058 | 77 | 64 | 1.0 | 5.0 | 0.00 | 0.00 | 0.00 | 88 | 1018.4 |
| 20260903124827 | 78 | 323 | 2.0 | 5.0 | 0.00 | 0.00 | 0.00 | 89 | 1019.3 |
| 20260903124555 | 77 | 355 | 1.0 | 4.0 | 0.00 | 0.00 | 0.00 | 89 | 1018.3 |
| 20260903124049 | 76 | 19 | 0.0 | 4.0 | 0.00 | 0.00 | 0.00 | 90 | 1018.3 |
| 20260903123541 | 76 | 327 | 1.0 | 4.0 | 0.00 | 0.00 | 0.00 | 91 | 1018.3 |
| 20260903123335 | 76 | 81 | 1.0 | 4.0 | 0.00 | 0.00 | 0.00 | 92 | 1019.3 |
| 20260903123015 | 75 | 29 | 1.0 | 4.0 | 0.00 | 0.00 | 0.00 | 92 | 1018.2 |
| 20260903122513 | 75 | 26 | 2.0 | 4.0 | 0.00 | 0.00 | 0.00 | 92 | 1018.2 |
| 20260903122011 | 74 | 67 | 1.0 | 4.0 | 0.00 | 0.00 | 0.00 | 92 | 1018.1 |
| 20260903121840 | 75 | 355 | 1.0 | 4.0 | 0.00 | 0.00 | 0.00 | 92 | 1019.0 |
| 20260903121543 | 74 | 5 | 1.0 | 4.0 | 0.00 | 0.00 | 0.00 | 92 | 1018.1 |
| 20260903121041 | 74 | 24 | 0.0 | 2.0 | 0.00 | 0.00 | 0.00 | 92 | 1018.2 |
| 20260903120537 | 74 | 17 | 0.0 | 2.0 | 0.00 | 0.00 | 0.00 | 92 | 1018.1 |
| 20260903120328 | 74 | 17 | 0.0 | 2.0 | 0.00 | 0.00 | 0.00 | 92 | 1019.0 |
| 20260903120033 | 74 | 17 | 0.0 | 2.0 | 0.00 | 0.00 | 0.00 | 92 | 1018.0 |
| 20260903115525 | 74 | 360 | 1.0 | 4.0 | 0.00 | 0.00 | 0.00 | 92 | 1017.9 |
| 20260903115021 | 74 | 10 | 0.0 | 4.0 | 0.00 | 0.00 | 0.00 | 92 | 1017.9 |
| 20260903114832 | 74 | 10 | 1.0 | 4.0 | 0.00 | 0.00 | 0.00 | 92 | 1018.9 |
| 20260903114517 | 73 | 5 | 0.0 | 0.0 | 0.00 | 0.00 | 0.00 | 92 | 1017.9 |
| 20260903114019 | 73 | 5 | 0.0 | 2.0 | 0.00 | 0.00 | 0.00 | 92 | 1017.7 |
| 20260903113511 | 73 | 355 | 0.0 | 2.0 | 0.00 | 0.00 | 0.00 | 92 | 1017.6 |
| 20260903113318 | 74 | 355 | 1.0 | 2.0 | 0.00 | 0.00 | 0.00 | 92 | 1018.5 |
| 20260903113103 | 73 | 355 | 1.0 | 2.0 | 0.00 | 0.00 | 0.00 | 92 | 1017.6 |
| 20260903112503 | 73 | 355 | 0.0 | 1.0 | 0.00 | 0.00 | 0.00 | 92 | 1017.5 |
| 20260903112059 | 73 | 355 | 0.0 | 1.0 | 0.00 | 0.00 | 0.00 | 92 | 1017.5 |
| 20260903112001 | 73 | 355 | 0.0 | 1.0 | 0.00 | 0.00 | 0.00 | 92 | 1017.5 |
| 20260903111826 | 74 | 355 | 0.0 | 1.0 | 0.00 | 0.00 | 0.00 | 92 | 1018.3 |
| 20260903111604 | 73 | 355 | 0.0 | 0.0 | 0.00 | 0.00 | 0.00 | 91 | 1017.3 |
| 20260903111053 | 73 | 355 | 0.0 | 0.0 | 0.00 | 0.00 | 0.00 | 91 | 1017.2 |
| 20260903110551 | 73 | 355 | 0.0 | 0.0 | 0.00 | 0.00 | 0.00 | 91 | 1017.1 |
| 20260903110327 | 74 | 355 | 0.0 | 0.0 | 0.00 | 0.00 | 0.00 | 91 | 1018.1 |
| 20260903110047 | 73 | 355 | 0.0 | 0.0 | 0.00 | 0.00 | 0.00 | 91 | 1017.1 |
| 20260903105545 | 73 | 355 | 0.0 | 0.0 | 0.00 | 0.00 | 0.00 | 91 | 1017.1 |
| 20260903105043 | 73 | 355 | 0.0 | 0.0 | 0.00 | 0.00 | 0.00 | 91 | 1017.1 |
| 20260903104826 | 74 | 355 | 0.0 | 0.0 | 0.00 | 0.00 | 0.00 | 91 | 1018.1 |
| 20260903104559 | 73 | 355 | 0.0 | 0.0 | 0.00 | 0.00 | 0.00 | 91 | 1017.1 |
| 20260903104034 | 74 | 355 | 0.0 | 0.0 | 0.00 | 0.00 | 0.00 | 91 | 1017.1 |
| 20260903103531 | 73 | 355 | 0.0 | 0.0 | 0.00 | 0.00 | 0.00 | 91 | 1017.1 |
| 20260903103326 | 74 | 355 | 0.0 | 0.0 | 0.00 | 0.00 | 0.00 | 91 | 1018.0 |
| 20260903103027 | 74 | 355 | 0.0 | 0.0 | 0.00 | 0.00 | 0.00 | 91 | 1017.0 |
| 20260903102525 | 74 | 355 | 0.0 | 0.0 | 0.00 | 0.00 | 0.00 | 91 | 1016.9 |
| 20260903102023 | 74 | 355 | 0.0 | 0.0 | 0.00 | 0.00 | 0.00 | 91 | 1016.9 |
| 20260903101825 | 74 | 355 | 0.0 | 0.0 | 0.00 | 0.00 | 0.00 | 91 | 1017.8 |
| 20260903101526 | 74 | 355 | 0.0 | 0.0 | 0.00 | 0.00 | 0.00 | 91 | 1016.8 |
| 20260903101019 | 74 | 355 | 0.0 | 0.0 | 0.00 | 0.00 | 0.00 | 91 | 1016.9 |
| 20260903100517 | 74 | 355 | 0.0 | 0.0 | 0.00 | 0.00 | 0.00 | 90 | 1016.8 |
| 20260903100326 | 74 | 355 | 0.0 | 0.0 | 0.00 | 0.00 | 0.00 | 91 | 1017.7 |
| 20260903100015 | 74 | 355 | 0.0 | 0.0 | 0.00 | 0.00 | 0.00 | 91 | 1016.8 |
| 20260903095512 | 74 | 355 | 0.0 | 0.0 | 0.00 | 0.00 | 0.00 | 91 | 1016.8 |
| 20260903095011 | 74 | 355 | 0.0 | 0.0 | 0.00 | 0.00 | 0.00 | 91 | 1016.7 |
| 20260903094825 | 75 | 355 | 0.0 | 0.0 | 0.00 | 0.00 | 0.00 | 90 | 1017.6 |
| 20260903094509 | 74 | 22 | 0.0 | 0.0 | 0.00 | 0.00 | 0.00 | 90 | 1016.8 |
| 20260903094007 | 74 | 22 | 0.0 | 0.0 | 0.00 | 0.00 | 0.00 | 90 | 1016.8 |
| 20260903093504 | 74 | 22 | 0.0 | 0.0 | 0.00 | 0.00 | 0.00 | 90 | 1016.8 |
| 20260903093326 | 75 | 22 | 0.0 | 0.0 | 0.00 | 0.00 | 0.00 | 90 | 1017.8 |
| 20260903093105 | 75 | 22 | 0.0 | 0.0 | 0.00 | 0.00 | 0.00 | 90 | 1016.9 |
| 20260903093003 | 75 | 22 | 0.0 | 0.0 | 0.00 | 0.00 | 0.00 | 90 | 1016.8 |
| 20260903092559 | 75 | 123 | 0.0 | 0.0 | 0.00 | 0.00 | 0.00 | 90 | 1016.9 |
| 20260903092501 | 75 | 123 | 0.0 | 0.0 | 0.00 | 0.00 | 0.00 | 90 | 1016.9 |
| 20260903092057 | 75 | 123 | 0.0 | 0.0 | 0.00 | 0.00 | 0.00 | 90 | 1016.8 |
| 20260903091825 | 75 | 123 | 0.0 | 0.0 | 0.00 | 0.00 | 0.00 | 90 | 1017.7 |
| 20260903091556 | 75 | 123 | 0.0 | 0.0 | 0.00 | 0.00 | 0.00 | 90 | 1016.8 |
| 20260903091501 | 75 | 123 | 0.0 | 0.0 | 0.00 | 0.00 | 0.00 | 90 | 1016.8 |
| 20260903091004 | 75 | 123 | 0.0 | 0.0 | 0.00 | 0.00 | 0.00 | 90 | 1016.7 |
| 20260903090511 | 75 | 123 | 0.0 | 0.0 | 0.00 | 0.00 | 0.00 | 90 | 1016.7 |
| 20260903090326 | 75 | 123 | 0.0 | 0.0 | 0.00 | 0.00 | 0.00 | 89 | 1017.7 |
| 20260903090019 | 75 | 123 | 0.0 | 0.0 | 0.00 | 0.00 | 0.00 | 89 | 1016.8 |
| 20260903085516 | 75 | 123 | 0.0 | 0.0 | 0.00 | 0.00 | 0.00 | 89 | 1016.8 |
| 20260903085022 | 75 | 123 | 0.0 | 0.0 | 0.00 | 0.00 | 0.00 | 89 | 1016.7 |
| 20260903084826 | 76 | 123 | 0.0 | 0.0 | 0.00 | 0.00 | 0.00 | 89 | 1017.8 |
| 20260903084540 | 75 | 123 | 0.0 | 0.0 | 0.00 | 0.00 | 0.00 | 89 | 1016.8 |
| 20260903084027 | 75 | 123 | 0.0 | 0.0 | 0.00 | 0.00 | 0.00 | 89 | 1016.9 |
| 20260903083529 | 75 | 123 | 0.0 | 0.0 | 0.00 | 0.00 | 0.00 | 89 | 1016.8 |
| 20260903083327 | 76 | 123 | 0.0 | 0.0 | 0.00 | 0.00 | 0.00 | 89 | 1017.9 |
| 20260903083031 | 75 | 123 | 0.0 | 0.0 | 0.00 | 0.00 | 0.00 | 89 | 1016.8 |
| 20260903082541 | 76 | 123 | 0.0 | 0.0 | 0.00 | 0.00 | 0.00 | 89 | 1016.8 |
| 20260903082043 | 76 | 123 | 0.0 | 0.0 | 0.00 | 0.00 | 0.00 | 89 | 1016.8 |
| 20260903081826 | 76 | 123 | 0.0 | 0.0 | 0.00 | 0.00 | 0.00 | 88 | 1017.7 |
| 20260903081601 | 76 | 123 | 0.0 | 0.0 | 0.00 | 0.00 | 0.00 | 88 | 1016.7 |
| 20260903081046 | 76 | 123 | 0.0 | 0.0 | 0.00 | 0.00 | 0.00 | 88 | 1016.7 |
| 20260903080553 | 76 | 123 | 0.0 | 2.0 | 0.00 | 0.00 | 0.00 | 88 | 1016.7 |
| 20260903080326 | 76 | 136 | 0.0 | 2.0 | 0.00 | 0.00 | 0.00 | 88 | 1017.7 |
| 20260903080055 | 76 | 136 | 0.0 | 2.0 | 0.00 | 0.00 | 0.00 | 88 | 1016.7 |
| 20260903075559 | 76 | 136 | 0.0 | 1.0 | 0.00 | 0.00 | 0.00 | 88 | 1016.7 |
| 20260903075503 | 76 | 136 | 0.0 | 1.0 | 0.00 | 0.00 | 0.00 | 88 | 1016.7 |
| 20260903075008 | 76 | 136 | 0.0 | 1.0 | 0.00 | 0.00 | 0.00 | 88 | 1016.7 |
| 20260903074826 | 77 | 136 | 0.0 | 1.0 | 0.00 | 0.00 | 0.00 | 88 | 1017.7 |
| 20260903074510 | 76 | 136 | 0.0 | 1.0 | 0.00 | 0.00 | 0.00 | 88 | 1016.8 |
| 20260903074018 | 76 | 136 | 0.0 | 1.0 | 0.00 | 0.00 | 0.00 | 88 | 1016.8 |
| 20260903073521 | 76 | 136 | 0.0 | 1.0 | 0.00 | 0.00 | 0.00 | 87 | 1016.8 |
| 20260903073325 | 77 | 136 | 0.0 | 0.0 | 0.00 | 0.00 | 0.00 | 87 | 1017.7 |
| 20260903073026 | 76 | 136 | 0.0 | 1.0 | 0.00 | 0.00 | 0.00 | 87 | 1016.8 |
| 20260903072528 | 76 | 136 | 0.0 | 2.0 | 0.00 | 0.00 | 0.00 | 87 | 1016.8 |
| 20260903072031 | 76 | 134 | 0.0 | 2.0 | 0.00 | 0.00 | 0.00 | 87 | 1016.9 |
| 20260903071845 | 77 | 139 | 0.0 | 2.0 | 0.00 | 0.00 | 0.00 | 87 | 1017.9 |
| 20260903071511 | 76 | 139 | 0.0 | 2.0 | 0.00 | 0.00 | 0.00 | 87 | 1016.9 |
| 20260903071012 | 77 | 138 | 0.0 | 2.0 | 0.00 | 0.00 | 0.00 | 86 | 1016.9 |
| 20260903070519 | 77 | 122 | 1.0 | 3.0 | 0.00 | 0.00 | 0.00 | 86 | 1017.0 |
| 20260903070323 | 77 | 128 | 1.0 | 3.0 | 0.00 | 0.00 | 0.00 | 86 | 1018.0 |
| 20260903070024 | 77 | 115 | 0.0 | 3.0 | 0.00 | 0.00 | 0.00 | 86 | 1017.0 |
| 20260903065523 | 77 | 109 | 1.0 | 2.0 | 0.00 | 0.00 | 0.00 | 86 | 1017.1 |
| 20260903065022 | 77 | 132 | 0.0 | 1.0 | 0.00 | 0.00 | 0.00 | 86 | 1017.2 |
| 20260903064819 | 77 | 132 | 0.0 | 1.0 | 0.00 | 0.00 | 0.00 | 86 | 1018.2 |
| 20260903064522 | 77 | 132 | 0.0 | 1.0 | 0.00 | 0.00 | 0.00 | 85 | 1017.1 |
| 20260903064033 | 77 | 132 | 0.0 | 1.0 | 0.00 | 0.00 | 0.00 | 85 | 1017.2 |
| 20260903063531 | 77 | 132 | 0.0 | 0.0 | 0.00 | 0.00 | 0.00 | 85 | 1017.1 |
| 20260903063318 | 77 | 132 | 0.0 | 0.0 | 0.00 | 0.00 | 0.00 | 85 | 1018.2 |
| 20260903063008 | 77 | 132 | 0.0 | 1.0 | 0.00 | 0.00 | 0.00 | 85 | 1017.3 |
| 20260903062512 | 77 | 132 | 0.0 | 1.0 | 0.00 | 0.00 | 0.00 | 85 | 1017.4 |
| 20260903062017 | 77 | 132 | 0.0 | 2.0 | 0.00 | 0.00 | 0.00 | 84 | 1017.4 |
| 20260903061816 | 78 | 132 | 0.0 | 2.0 | 0.00 | 0.00 | 0.00 | 84 | 1018.4 |
| 20260903061514 | 77 | 132 | 0.0 | 2.0 | 0.00 | 0.00 | 0.00 | 84 | 1017.4 |
| 20260903061006 | 77 | 130 | 0.0 | 3.0 | 0.00 | 0.00 | 0.00 | 84 | 1017.4 |
| 20260903060503 | 78 | 130 | 1.0 | 3.0 | 0.00 | 0.00 | 0.00 | 84 | 1017.4 |
| 20260903060324 | 78 | 153 | 1.0 | 2.0 | 0.00 | 0.00 | 0.00 | 84 | 1018.5 |
| 20260903060057 | 78 | 136 | 0.0 | 2.0 | 0.00 | 0.00 | 0.00 | 84 | 1017.4 |
| 20260903055556 | 78 | 126 | 0.0 | 2.0 | 0.00 | 0.00 | 0.00 | 83 | 1017.5 |
| 20260903055050 | 78 | 148 | 0.0 | 2.0 | 0.00 | 0.00 | 0.00 | 83 | 1017.5 |
| 20260903054829 | 78 | 148 | 0.0 | 2.0 | 0.00 | 0.00 | 0.00 | 83 | 1018.5 |
| 20260903054553 | 78 | 117 | 0.0 | 2.0 | 0.00 | 0.00 | 0.00 | 83 | 1017.6 |
| 20260903054045 | 78 | 144 | 0.0 | 2.0 | 0.00 | 0.00 | 0.00 | 83 | 1017.5 |
| 20260903053540 | 78 | 121 | 0.0 | 2.0 | 0.00 | 0.00 | 0.00 | 83 | 1017.6 |
| 20260903053317 | 79 | 117 | 0.0 | 1.0 | 0.00 | 0.00 | 0.00 | 83 | 1018.6 |
| 20260903053038 | 78 | 119 | 0.0 | 1.0 | 0.00 | 0.00 | 0.00 | 82 | 1017.6 |
| 20260903052529 | 78 | 139 | 0.0 | 3.0 | 0.00 | 0.00 | 0.00 | 82 | 1017.8 |
| 20260903052028 | 78 | 139 | 0.0 | 2.0 | 0.00 | 0.00 | 0.00 | 82 | 1017.7 |
| 20260903051822 | 79 | 124 | 0.0 | 2.0 | 0.00 | 0.00 | 0.00 | 82 | 1018.7 |
| 20260903051523 | 78 | 142 | 0.0 | 2.0 | 0.00 | 0.00 | 0.00 | 82 | 1017.6 |
| 20260903051018 | 79 | 144 | 0.0 | 1.0 | 0.00 | 0.00 | 0.00 | 81 | 1017.6 |
| 20260903050517 | 79 | 141 | 0.0 | 1.0 | 0.00 | 0.00 | 0.00 | 81 | 1017.7 |
| 20260903050328 | 79 | 141 | 0.0 | 1.0 | 0.00 | 0.00 | 0.00 | 81 | 1018.7 |
| 20260903050034 | 79 | 142 | 0.0 | 2.0 | 0.00 | 0.00 | 0.00 | 81 | 1017.6 |
| 20260903045509 | 79 | 126 | 0.0 | 2.0 | 0.00 | 0.00 | 0.00 | 81 | 1017.6 |
| 20260903045058 | 79 | 121 | 0.0 | 3.0 | 0.00 | 0.00 | 0.00 | 80 | 1017.4 |
| 20260903045006 | 79 | 117 | 0.0 | 3.0 | 0.00 | 0.00 | 0.00 | 80 | 1017.5 |
| 20260903044853 | 80 | 117 | 1.0 | 3.0 | 0.00 | 0.00 | 0.00 | 80 | 1018.5 |
| 20260903044544 | 79 | 123 | 1.0 | 3.0 | 0.00 | 0.00 | 0.00 | 80 | 1017.6 |
| 20260903044035 | 79 | 135 | 0.0 | 2.0 | 0.00 | 0.00 | 0.00 | 80 | 1017.5 |
| 20260903043528 | 79 | 140 | 0.0 | 3.0 | 0.00 | 0.00 | 0.00 | 79 | 1017.6 |
| 20260903043321 | 80 | 117 | 1.0 | 4.0 | 0.00 | 0.00 | 0.00 | 79 | 1018.5 |
| 20260903043024 | 79 | 130 | 1.0 | 4.0 | 0.00 | 0.00 | 0.00 | 79 | 1017.5 |
| 20260903042522 | 79 | 128 | 1.0 | 4.0 | 0.00 | 0.00 | 0.00 | 79 | 1017.5 |
| 20260903042020 | 79 | 146 | 1.0 | 4.0 | 0.00 | 0.00 | 0.00 | 79 | 1017.4 |
| 20260903041826 | 80 | 128 | 1.0 | 4.0 | 0.00 | 0.00 | 0.00 | 79 | 1018.5 |
| 20260903041520 | 80 | 145 | 1.0 | 4.0 | 0.00 | 0.00 | 0.00 | 78 | 1017.5 |
| 20260903041012 | 80 | 123 | 1.0 | 3.0 | 0.00 | 0.00 | 0.00 | 78 | 1017.5 |
| 20260903040508 | 80 | 135 | 1.0 | 3.0 | 0.00 | 0.00 | 0.00 | 78 | 1017.5 |
| 20260903040333 | 80 | 141 | 1.0 | 3.0 | 0.00 | 0.00 | 0.00 | 78 | 1018.5 |
| 20260903040057 | 80 | 144 | 1.0 | 4.0 | 0.00 | 0.00 | 0.00 | 77 | 1017.5 |
| 20260903035550 | 80 | 159 | 1.0 | 4.0 | 0.00 | 0.00 | 0.00 | 77 | 1017.4 |
| 20260903035051 | 80 | 146 | 1.0 | 4.0 | 0.00 | 0.00 | 0.00 | 77 | 1017.5 |
| 20260903034813 | 81 | 136 | 1.0 | 4.0 | 0.00 | 0.00 | 0.00 | 77 | 1018.5 |
| 20260903034526 | 80 | 148 | 1.0 | 4.0 | 0.00 | 0.00 | 0.00 | 76 | 1017.5 |
| 20260903034016 | 80 | 168 | 1.0 | 4.0 | 0.00 | 0.00 | 0.00 | 76 | 1017.4 |
| 20260903033512 | 81 | 127 | 1.0 | 4.0 | 0.00 | 0.00 | 0.00 | 76 | 1017.4 |
| 20260903033326 | 81 | 136 | 2.0 | 4.0 | 0.00 | 0.00 | 0.00 | 76 | 1018.5 |
| 20260903033009 | 81 | 142 | 1.0 | 4.0 | 0.00 | 0.00 | 0.00 | 75 | 1017.4 |
| 20260903032509 | 81 | 138 | 2.0 | 5.0 | 0.00 | 0.00 | 0.00 | 75 | 1017.4 |
| 20260903032058 | 81 | 130 | 1.0 | 4.0 | 0.00 | 0.00 | 0.00 | 75 | 1017.5 |
| 20260903032003 | 81 | 159 | 2.0 | 4.0 | 0.00 | 0.00 | 0.00 | 75 | 1017.4 |
| 20260903031817 | 82 | 138 | 2.0 | 4.0 | 0.00 | 0.00 | 0.00 | 75 | 1018.4 |
| 20260903031557 | 81 | 152 | 1.0 | 4.0 | 0.00 | 0.00 | 0.00 | 75 | 1017.4 |
| 20260903031059 | 81 | 142 | 1.0 | 5.0 | 0.00 | 0.00 | 0.00 | 74 | 1017.4 |
| 20260903030552 | 81 | 137 | 2.0 | 6.0 | 0.00 | 0.00 | 0.00 | 74 | 1017.5 |
| 20260903030326 | 82 | 128 | 3.0 | 6.0 | 0.00 | 0.00 | 0.00 | 74 | 1018.5 |
| 20260903030049 | 81 | 103 | 3.0 | 6.0 | 0.00 | 0.00 | 0.00 | 74 | 1017.5 |
| 20260903025539 | 82 | 169 | 1.0 | 8.0 | 0.00 | 0.00 | 0.00 | 74 | 1017.4 |
| 20260903025034 | 82 | 144 | 3.0 | 5.0 | 0.00 | 0.00 | 0.00 | 73 | 1017.5 |
| 20260903024831 | 82 | 147 | 2.0 | 5.0 | 0.00 | 0.00 | 0.00 | 73 | 1018.5 |
| 20260903024535 | 82 | 124 | 1.0 | 4.0 | 0.00 | 0.00 | 0.00 | 73 | 1017.5 |